Location: L�Ave Maria
(50.7161°N, 1.5911°E)
Time: 23:47:23
(UTC+00:00)

Cosmos 2184 Rocket - Pass Details

Date: 10 July 2020
Orbit: 960 x 1001 km, 82.9° (Epoch: 14 August)

Event Time Altitude Azimuth Distance (km) Brightness Sun altitude
Exits shadow 21:09:31 - 171° (S) 3,165 6.1 -8.2°
Reaches altitude 10° 21:10:43 10° 169° (S) 2,723 5.8 -8.3°
Maximum altitude 21:16:48 57° 92° (E) 1,154 4.2 -8.9°
Drops below altitude 10° 21:22:59 10° 16° (NNE) 2,770 6.9 -9.5°
Sets 21:25:34 0° 13° (NNE) 3,728 7.7 -9.7°
